Location: DaVinci Observatory
(43.1080°N, 78.6453°W)
Time: 16:56:25
(UTC-04:00)

OTV 5 (USA 277) - Pass Details

Date: 16 October 2017
Orbit: 404 x 417 km, 43.0° (Epoch: 07 September)

Event Time Altitude Azimuth Distance (km) Brightness Sun altitude
Rises 19:27:32 0° 268° (W) 2,353 ? -11.3°
Reaches altitude 10° 19:29:38 10° 269° (W) 1,491 ? -11.7°
Maximum altitude 19:33:01 89° 360° (N) 421 ? -12.3°
Enters shadow 19:35:01 23° 89° (E) 944 ? -12.7°
